Time,TemperatureF,DewpointF,PressureIn,WindDirection,WindDirectionDegrees,WindSpeedMPH,WindSpeedGustMPH,Humidity,HourlyPrecipIn,Conditions,Clouds,dailyrainin,SolarRadiationWatts/m^2,SoftwareType,DateUTC
2013-04-15 00:02:00,37.0,31.0,-100.00,East,82,9.0,19.0,80,0.00,,,0.01,89.000000,,2013-04-15 00:02:00,
2013-04-15 00:12:00,36.0,31.0,-100.00,East,79,8.0,18.0,82,0.00,,,-99.99,25.000000,,2013-04-15 00:12:00,
2013-04-15 00:33:00,36.0,31.0,-100.00,East,79,8.0,18.0,82,0.00,,,-99.99,25.000000,,2013-04-15 00:33:00,
2013-04-15 00:43:00,36.0,31.0,-100.00,East,79,8.0,18.0,82,0.00,,,-99.99,25.000000,,2013-04-15 00:43:00,
2013-04-15 00:52:00,36.0,31.0,-100.00,East,79,8.0,18.0,82,0.00,,,-99.99,25.000000,,2013-04-15 00:52:00,
2013-04-15 01:02:00,36.0,31.0,-100.00,East,79,8.0,18.0,82,0.00,,,-99.99,25.000000,,2013-04-15 01:02:00,
2013-04-15 01:12:00,36.0,31.0,-100.00,ENE,78,8.0,16.0,83,0.00,,,0.01,2.000000,,2013-04-15 01:12:00,
2013-04-15 01:42:00,36.0,31.0,-100.00,ENE,78,8.0,16.0,83,0.00,,,0.01,2.000000,,2013-04-15 01:42:00,
2013-04-15 01:52:00,36.0,31.0,-100.00,ENE,78,8.0,16.0,83,0.00,,,0.01,2.000000,,2013-04-15 01:52:00,
2013-04-15 02:03:00,36.0,31.0,-100.00,ENE,78,8.0,16.0,83,0.00,,,0.01,2.000000,,2013-04-15 02:03:00,
2013-04-15 02:12:00,37.0,31.0,-100.00,East,80,9.0,19.0,80,0.00,,,0.01,0.000000,,2013-04-15 02:12:00,
2013-04-15 02:32:00,37.0,31.0,-100.00,East,80,9.0,19.0,80,0.00,,,0.01,0.000000,,2013-04-15 02:32:00,
2013-04-15 02:42:00,37.0,31.0,-100.00,East,80,9.0,19.0,80,0.00,,,0.01,0.000000,,2013-04-15 02:42:00,
2013-04-15 02:53:00,37.0,31.0,-100.00,East,80,9.0,19.0,80,0.00,,,0.01,0.000000,,2013-04-15 02:53:00,
2013-04-15 03:03:00,37.0,31.0,-100.00,East,80,9.0,19.0,80,0.00,,,0.01,0.000000,,2013-04-15 03:03:00,
2013-04-15 03:12:00,37.0,32.0,-100.00,ENE,73,8.0,15.0,82,0.00,,,0.01,0.000000,,2013-04-15 03:12:00,
2013-04-15 03:43:00,37.0,32.0,-100.00,ENE,73,8.0,15.0,82,0.00,,,0.01,0.000000,,2013-04-15 03:43:00,
2013-04-15 03:55:00,37.0,32.0,-100.00,ENE,73,8.0,15.0,82,0.00,,,0.01,0.000000,,2013-04-15 03:55:00,
2013-04-15 04:03:00,37.0,32.0,-100.00,ENE,73,8.0,15.0,82,0.00,,,0.01,0.000000,,2013-04-15 04:03:00,
2013-04-15 04:12:00,38.0,34.0,-100.00,ENE,65,7.0,15.0,85,0.00,,,0.01,0.000000,,2013-04-15 04:12:00,
2013-04-15 04:33:00,38.0,34.0,-100.00,ENE,65,7.0,15.0,85,0.00,,,0.01,0.000000,,2013-04-15 04:33:00,
2013-04-15 04:43:00,38.0,34.0,-100.00,ENE,65,7.0,15.0,85,0.00,,,0.01,0.000000,,2013-04-15 04:43:00,
2013-04-15 04:53:00,38.0,34.0,-100.00,ENE,65,7.0,15.0,85,0.00,,,0.01,0.000000,,2013-04-15 04:53:00,
2013-04-15 05:02:00,38.0,34.0,-100.00,ENE,65,7.0,15.0,85,0.00,,,0.01,0.000000,,2013-04-15 05:02:00,
2013-04-15 05:12:00,39.0,35.0,-100.00,WNW,282,7.0,11.0,87,0.00,,,0.01,0.000000,,2013-04-15 05:12:00,
2013-04-15 05:33:00,39.0,35.0,-100.00,WNW,282,7.0,11.0,87,0.00,,,0.01,0.000000,,2013-04-15 05:33:00,
2013-04-15 05:43:00,39.0,35.0,-100.00,WNW,282,7.0,11.0,87,0.00,,,0.01,0.000000,,2013-04-15 05:43:00,
2013-04-15 05:53:00,39.0,35.0,-100.00,WNW,282,7.0,11.0,87,0.00,,,0.01,0.000000,,2013-04-15 05:53:00,
2013-04-15 06:02:00,39.0,35.0,-100.00,WNW,282,7.0,11.0,87,0.00,,,0.01,0.000000,,2013-04-15 06:02:00,
2013-04-15 06:34:00,38.0,36.0,-100.00,ENE,61,4.0,10.0,92,0.05,,,0.06,0.000000,,2013-04-15 06:34:00,
2013-04-15 06:43:00,38.0,36.0,-100.00,ENE,61,4.0,10.0,92,0.05,,,0.06,0.000000,,2013-04-15 06:43:00,
2013-04-15 06:52:00,38.0,36.0,-100.00,ENE,61,4.0,10.0,92,0.05,,,0.06,0.000000,,2013-04-15 06:52:00,
2013-04-15 07:02:00,38.0,36.0,-100.00,ENE,61,4.0,10.0,92,0.05,,,0.06,0.000000,,2013-04-15 07:02:00,
2013-04-15 07:12:00,38.0,36.0,-100.00,NE,35,0.0,6.0,93,0.09,,,0.15,0.000000,,2013-04-15 07:12:00,
2013-04-15 07:43:00,38.0,36.0,-100.00,NE,35,0.0,6.0,93,0.09,,,0.15,0.000000,,2013-04-15 07:43:00,
2013-04-15 07:54:00,38.0,36.0,-100.00,NE,35,0.0,6.0,93,0.09,,,0.15,0.000000,,2013-04-15 07:54:00,
2013-04-15 08:02:00,38.0,36.0,-100.00,NE,35,0.0,6.0,93,0.09,,,0.15,0.000000,,2013-04-15 08:02:00,
2013-04-15 08:12:00,38.0,36.0,-100.00,North,356,2.0,7.0,94,0.09,,,0.24,0.000000,,2013-04-15 08:12:00,
2013-04-15 08:43:00,38.0,36.0,-100.00,North,356,2.0,7.0,94,0.09,,,0.24,0.000000,,2013-04-15 08:43:00,
2013-04-15 08:52:00,38.0,36.0,-100.00,North,356,2.0,7.0,94,0.09,,,0.24,0.000000,,2013-04-15 08:52:00,
2013-04-15 09:03:00,38.0,36.0,-100.00,North,356,2.0,7.0,94,0.09,,,0.24,0.000000,,2013-04-15 09:03:00,
2013-04-15 09:12:00,38.0,36.0,-100.00,SW,221,4.0,7.0,94,0.00,,,0.24,0.000000,,2013-04-15 09:12:00,
2013-04-15 09:33:00,38.0,36.0,-100.00,SW,221,4.0,7.0,94,0.00,,,0.24,0.000000,,2013-04-15 09:33:00,
2013-04-15 09:43:00,38.0,36.0,-100.00,SW,221,4.0,7.0,94,0.00,,,0.24,0.000000,,2013-04-15 09:43:00,
2013-04-15 09:53:00,38.0,36.0,-100.00,SW,221,4.0,7.0,94,0.00,,,0.24,0.000000,,2013-04-15 09:53:00,
2013-04-15 10:02:00,38.0,36.0,-100.00,SW,221,4.0,7.0,94,0.00,,,0.24,0.000000,,2013-04-15 10:02:00,
2013-04-15 10:12:00,38.0,36.0,-100.00,SW,222,2.0,6.0,94,0.00,,,0.24,0.000000,,2013-04-15 10:12:00,
2013-04-15 10:33:00,38.0,36.0,-100.00,SW,222,2.0,6.0,94,0.00,,,0.24,0.000000,,2013-04-15 10:33:00,
2013-04-15 10:42:00,38.0,36.0,-100.00,SW,222,2.0,6.0,94,0.00,,,0.24,0.000000,,2013-04-15 10:42:00,
2013-04-15 11:03:00,38.0,36.0,-100.00,SW,222,2.0,6.0,94,0.00,,,0.24,0.000000,,2013-04-15 11:03:00,
2013-04-15 11:12:00,38.0,37.0,-100.00,South,178,2.0,5.0,95,0.00,,,0.24,0.000000,,2013-04-15 11:12:00,
2013-04-15 11:33:00,38.0,37.0,-100.00,South,178,2.0,5.0,95,0.00,,,0.24,0.000000,,2013-04-15 11:33:00,
2013-04-15 11:43:00,38.0,37.0,-100.00,South,178,2.0,5.0,95,0.00,,,0.24,0.000000,,2013-04-15 11:43:00,
2013-04-15 11:54:00,38.0,37.0,-100.00,South,178,2.0,5.0,95,0.00,,,0.24,0.000000,,2013-04-15 11:54:00,
2013-04-15 12:04:00,38.0,37.0,-100.00,South,178,2.0,5.0,95,0.00,,,0.24,0.000000,,2013-04-15 12:04:00,
2013-04-15 12:12:00,39.0,38.0,-100.00,SSW,203,3.0,7.0,95,0.00,,,0.24,16.000000,,2013-04-15 12:12:00,
2013-04-15 12:34:00,39.0,38.0,-100.00,SSW,203,3.0,7.0,95,0.00,,,0.24,16.000000,,2013-04-15 12:34:00,
2013-04-15 12:43:00,39.0,38.0,-100.00,SSW,203,3.0,7.0,95,0.00,,,0.24,16.000000,,2013-04-15 12:43:00,
2013-04-15 12:53:00,39.0,38.0,-100.00,SSW,203,3.0,7.0,95,0.00,,,0.24,16.000000,,2013-04-15 12:53:00,
2013-04-15 13:04:00,39.0,38.0,-100.00,SSW,203,3.0,7.0,95,0.00,,,0.24,16.000000,,2013-04-15 13:04:00,
2013-04-15 13:12:00,40.0,39.0,-100.00,SSW,193,5.0,11.0,95,0.00,,,0.24,83.000000,,2013-04-15 13:12:00,
2013-04-15 13:43:00,40.0,39.0,-100.00,SSW,193,5.0,11.0,95,0.00,,,0.24,83.000000,,2013-04-15 13:43:00,
2013-04-15 13:54:00,40.0,39.0,-100.00,SSW,193,5.0,11.0,95,0.00,,,0.24,83.000000,,2013-04-15 13:54:00,
2013-04-15 14:05:00,40.0,39.0,-100.00,SSW,193,5.0,11.0,95,0.00,,,0.24,83.000000,,2013-04-15 14:05:00,
2013-04-15 14:12:00,45.0,44.0,-100.00,South,176,5.0,9.0,95,0.00,,,0.24,235.000000,,2013-04-15 14:12:00,
2013-04-15 14:34:00,45.0,44.0,-100.00,South,176,5.0,9.0,95,0.00,,,0.24,235.000000,,2013-04-15 14:34:00,
2013-04-15 14:44:00,45.0,44.0,-100.00,South,176,5.0,9.0,95,0.00,,,0.24,235.000000,,2013-04-15 14:44:00,
2013-04-15 14:55:00,45.0,44.0,-100.00,South,176,5.0,9.0,95,0.00,,,0.24,235.000000,,2013-04-15 14:55:00,
2013-04-15 15:03:00,45.0,44.0,-100.00,South,176,5.0,9.0,95,0.00,,,0.24,235.000000,,2013-04-15 15:03:00,
2013-04-15 15:12:00,54.0,47.0,-100.00,SSW,207,9.0,15.0,76,0.00,,,-99.99,601.000000,,2013-04-15 15:12:00,
2013-04-15 15:37:00,54.0,47.0,-100.00,SSW,207,9.0,15.0,76,0.00,,,-99.99,601.000000,,2013-04-15 15:37:00,
2013-04-15 15:45:00,54.0,47.0,-100.00,SSW,207,9.0,15.0,76,0.00,,,-99.99,601.000000,,2013-04-15 15:45:00,
2013-04-15 15:55:00,54.0,47.0,-100.00,SSW,207,9.0,15.0,76,0.00,,,-99.99,601.000000,,2013-04-15 15:55:00,
2013-04-15 16:04:00,54.0,47.0,-100.00,SSW,207,9.0,15.0,76,0.00,,,-99.99,601.000000,,2013-04-15 16:04:00,
2013-04-15 16:12:00,58.0,35.0,-100.00,SSW,212,13.0,25.0,42,0.00,,,0.24,738.000000,,2013-04-15 16:12:00,
2013-04-15 16:44:00,58.0,35.0,-100.00,SSW,212,13.0,25.0,42,0.00,,,0.24,738.000000,,2013-04-15 16:44:00,
2013-04-15 16:54:00,58.0,35.0,-100.00,SSW,212,13.0,25.0,42,0.00,,,0.24,738.000000,,2013-04-15 16:54:00,
2013-04-15 17:03:00,58.0,35.0,-100.00,SSW,212,13.0,25.0,42,0.00,,,0.24,738.000000,,2013-04-15 17:03:00,
2013-04-15 17:12:00,57.0,40.0,-100.00,SW,232,11.0,23.0,53,0.00,,,0.24,631.000000,,2013-04-15 17:12:00,
2013-04-15 17:33:00,57.0,40.0,-100.00,SW,232,11.0,23.0,53,0.00,,,0.24,631.000000,,2013-04-15 17:33:00,
2013-04-15 17:43:00,57.0,40.0,-100.00,SW,232,11.0,23.0,53,0.00,,,0.24,631.000000,,2013-04-15 17:43:00,
2013-04-15 17:53:00,57.0,40.0,-100.00,SW,232,11.0,23.0,53,0.00,,,0.24,631.000000,,2013-04-15 17:53:00,
2013-04-15 18:03:00,57.0,40.0,-100.00,SW,232,11.0,23.0,53,0.00,,,0.24,631.000000,,2013-04-15 18:03:00,
2013-04-15 18:12:00,56.0,33.0,-100.00,SW,236,11.0,29.0,42,0.00,,,0.24,659.000000,,2013-04-15 18:12:00,
2013-04-15 18:33:00,56.0,33.0,-100.00,SW,236,11.0,29.0,42,0.00,,,0.24,659.000000,,2013-04-15 18:33:00,
2013-04-15 18:42:00,56.0,33.0,-100.00,SW,236,11.0,29.0,42,0.00,,,0.24,659.000000,,2013-04-15 18:42:00,
2013-04-15 18:52:00,56.0,33.0,-100.00,SW,236,11.0,29.0,42,0.00,,,0.24,659.000000,,2013-04-15 18:52:00,
2013-04-15 19:02:00,56.0,33.0,-100.00,SW,236,11.0,29.0,42,0.00,,,0.24,659.000000,,2013-04-15 19:02:00,
2013-04-15 20:01:00,51.0,31.0,-100.00,SW,235,10.0,23.0,47,0.00,,,0.24,178.000000,,2013-04-15 20:01:00,
2013-04-15 20:02:00,51.0,31.0,-100.00,SW,235,10.0,23.0,47,0.00,,,0.24,178.000000,,2013-04-15 20:02:00,
2013-04-15 20:11:00,51.0,31.0,-100.00,SW,235,10.0,23.0,47,0.00,,,0.24,178.000000,,2013-04-15 20:11:00,
2013-04-15 20:12:00,53.0,32.0,-100.00,WSW,251,12.0,24.0,44,0.00,,,0.23,395.000000,,2013-04-15 20:12:00,
2013-04-15 20:32:00,53.0,32.0,-100.00,WSW,251,12.0,24.0,44,0.00,,,0.23,395.000000,,2013-04-15 20:32:00,
2013-04-15 20:42:00,53.0,32.0,-100.00,WSW,251,12.0,24.0,44,0.00,,,0.23,395.000000,,2013-04-15 20:42:00,
2013-04-15 20:52:00,53.0,32.0,-100.00,WSW,251,12.0,24.0,44,0.00,,,0.23,395.000000,,2013-04-15 20:52:00,
2013-04-15 21:02:00,53.0,32.0,-100.00,WSW,251,12.0,24.0,44,0.00,,,0.23,395.000000,,2013-04-15 21:02:00,
2013-04-15 21:12:00,51.0,24.0,-100.00,WSW,239,10.0,27.0,34,0.00,,,0.23,327.000000,,2013-04-15 21:12:00,
2013-04-15 21:43:00,51.0,24.0,-100.00,WSW,239,10.0,27.0,34,0.00,,,0.23,327.000000,,2013-04-15 21:43:00,
2013-04-15 21:53:00,51.0,24.0,-100.00,WSW,239,10.0,27.0,34,0.00,,,0.23,327.000000,,2013-04-15 21:53:00,
2013-04-15 22:02:00,51.0,24.0,-100.00,WSW,239,10.0,27.0,34,0.00,,,0.23,327.000000,,2013-04-15 22:02:00,
2013-04-15 22:12:00,53.0,27.0,-100.00,West,260,12.0,22.0,37,0.00,,,0.23,334.000000,,2013-04-15 22:12:00,
2013-04-15 22:42:00,53.0,27.0,-100.00,West,260,12.0,22.0,37,0.00,,,0.23,334.000000,,2013-04-15 22:42:00,
2013-04-15 22:52:00,53.0,27.0,-100.00,West,260,12.0,22.0,37,0.00,,,0.23,334.000000,,2013-04-15 22:52:00,
2013-04-15 23:02:00,53.0,27.0,-100.00,West,260,12.0,22.0,37,0.00,,,0.23,334.000000,,2013-04-15 23:02:00,
2013-04-15 23:12:00,51.0,28.0,-100.00,WNW,283,12.0,19.0,40,0.00,,,0.23,316.000000,,2013-04-15 23:12:00,
2013-04-15 23:32:00,51.0,28.0,-100.00,WNW,283,12.0,19.0,40,0.00,,,0.23,316.000000,,2013-04-15 23:32:00,
2013-04-15 23:42:00,51.0,28.0,-100.00,WNW,283,12.0,19.0,40,0.00,,,0.23,316.000000,,2013-04-15 23:42:00,
2013-04-15 23:52:00,51.0,28.0,-100.00,WNW,283,12.0,19.0,40,0.00,,,0.23,316.000000,,2013-04-15 23:52:00,